Total_Precipitation_Accumulation
2.15 2.09 1.99 1.94 1.78 1.88 2.24 2.47 2.35 2.40 2.33 2.17 1.93 1.76 1.65 1.59 1.52 1.62 1.78 1.97 1.97 1.95 2.09 2.22 2.07 1.87 1.75 1.60 1.44 1.28 1.18 1.12 0.99 0.79 0.70 0.59 0.50 0.50 0.53 0.59 0.57 0.50 0.48
2.54 2.64 2.52 2.37 2.04 1.94 2.04 2.33 2.44 2.62 2.54 2.39 1.82 1.72 1.72 1.73 1.76 1.72 1.83 2.32 2.34 1.95 1.89 2.05 2.19 2.19 2.03 1.85 1.68 1.48 1.35 1.25 1.03 0.80 0.72 0.65 0.54 0.48 0.54 0.63 0.64 0.51 0.38
2.68 2.68 2.48 2.13 1.92 1.94 2.05 2.00 2.05 2.35 2.17 2.05 1.90 1.97 1.97 1.90 1.77 1.74 1.81 2.19 2.21 1.84 1.65 1.68 1.90 2.06 2.15 2.23 2.12 2.00 1.76 1.48 1.20 0.94 0.78 0.64 0.55 0.47 0.46 0.56 0.65 0.56 0.41
2.29 2.34 2.00 1.63 1.73 1.91 1.97 2.00 1.95 2.06 2.07 2.15 2.18 2.13 2.07 1.92 1.57 1.45 1.38 1.43 1.62 1.37 1.46 1.65 1.66 1.67 1.94 2.30 2.47 2.66 2.42 1.90 1.46 1.13 0.91 0.72 0.58 0.46 0.40 0.45 0.54 0.51 0.41
1.72 1.84 1.64 1.54 1.59 1.76 1.80 1.70 1.91 2.06 2.02 2.08 2.01 1.98 1.66 1.49 1.30 1.11 1.05 0.99 1.10 1.19 1.19 1.29 1.38 1.44 1.80 2.33 2.75 3.10 3.07 2.58 2.02 1.60 1.31 1.00 0.82 0.59 0.46 0.41 0.43 0.44 0.39
1.48 1.66 1.56 1.46 1.51 1.65 1.71 1.83 1.98 2.04 1.83 1.78 1.66 1.51 1.25 0.97 0.88 0.83 0.70 0.75 0.84 0.82 0.90 1.04 1.28 1.16 1.58 2.04 2.49 2.93 3.29 3.11 2.46 2.00 1.82 1.57 1.31 0.96 0.63 0.46 0.39 0.39 0.35
1.52 1.65 1.49 1.45 1.37 1.46 1.47 1.57 1.68 1.70 1.45 1.62 1.90 1.50 1.04 0.78 0.70 0.59 0.55 0.60 0.61 0.69 0.87 1.12 1.27 1.30 1.40 1.55 1.78 2.19 2.87 3.20 2.89 2.37 2.12 1.90 1.71 1.34 0.88 0.63 0.48 0.37 0.33
1.37 1.35 1.37 1.25 1.24 1.33 1.31 1.38 1.51 1.50 1.34 1.53 1.81 1.85 1.43 1.11 0.85 0.57 0.53 0.54 0.60 0.73 0.82 0.91 1.22 1.39 1.36 1.77 1.51 1.55 2.07 2.66 2.96 2.79 2.50 2.06 1.77 1.47 1.12 0.90 0.68 0.50 0.40
1.11 1.07 1.08 1.11 1.19 1.09 1.17 1.26 1.40 1.56 1.44 1.33 1.53 1.78 1.58 1.30 1.06 0.78 0.68 0.75 0.86 0.96 0.97 1.10 1.19 1.30 1.38 1.78 1.77 1.62 1.64 1.84 2.46 3.03 3.04 2.46 1.83 1.46 1.34 1.29 1.16 0.86 0.65
1.00 0.96 0.97 1.10 1.15 1.11 1.24 1.06 1.14 1.37 1.49 1.30 1.29 1.35 1.37 1.46 1.47 1.15 0.83 0.74 0.86 0.94 0.93 0.92 1.02 1.21 1.31 1.59 1.91 1.73 1.54 1.45 1.69 2.42 2.97 2.92 2.33 1.66 1.38 1.45 1.75 1.61 1.18
1.03 0.93 0.96 1.03 1.11 1.12 1.17 1.16 1.23 1.17 1.21 1.18 1.16 1.19 1.28 1.38 1.35 1.31 1.12 0.91 0.86 0.76 0.78 0.87 1.00 1.10 1.17 1.43 1.83 1.67 1.60 1.41 1.35 1.59 2.04 2.35 2.34 2.03 1.73 1.75 2.24 2.60 2.35
1.06 0.95 0.96 1.07 1.07 1.03 1.05 1.08 1.10 1.07 1.13 1.16 1.14 1.15 1.23 1.23 1.21 1.34 1.26 1.07 0.98 0.80 0.85 0.91 1.02 1.11 1.13 1.22 1.17 1.19 1.21 1.25 1.22 1.16 1.24 1.44 1.74 1.94 1.99 2.20 2.66 3.14 3.35
0.95 0.93 0.92 1.08 1.17 1.14 1.08 1.09 1.11 1.13 1.19 1.21 1.15 1.13 1.16 1.17 1.20 1.33 1.34 1.14 1.07 0.97 1.06 1.05 1.02 1.11 1.06 1.25 1.20 1.00 0.85 0.89 0.85 0.82 0.80 0.90 1.12 1.38 1.59 1.78 2.14 2.60 3.00
0.90 1.07 1.15 1.14 1.16 1.19 1.17 1.30 1.23 1.23 1.29 1.28 1.17 1.31 1.30 1.18 1.30 1.39 1.51 1.56 1.40 1.29 1.40 1.22 1.01 1.01 1.02 1.06 1.07 1.00 0.90 0.76 0.64 0.57 0.55 0.60 0.68 0.81 0.96 1.13 1.35 1.59 1.84
0.95 1.07 1.17 1.24 1.21 1.17 1.22 1.38 1.34 1.37 1.44 1.38 1.35 1.48 1.47 1.41 1.42 1.39 1.56 1.74 1.82 1.71 1.66 1.46 1.24 1.13 1.05 1.00 1.04 0.97 0.97 0.96 0.71 0.54 0.48 0.48 0.54 0.60 0.64 0.67 0.77 0.89 1.01
1.04 1.05 1.04 1.13 1.16 1.14 1.22 1.43 1.43 1.49 1.64 1.61 1.56 1.60 1.62 1.59 1.65 1.59 1.62 1.78 1.93 1.97 1.78 1.37 1.29 1.22 1.14 0.93 0.96 0.88 0.92 1.00 0.79 0.59 0.48 0.44 0.43 0.46 0.51 0.55 0.61 0.66 0.73
1.08 1.04 1.01 1.05 1.07 1.05 1.12 1.29 1.43 1.58 1.68 1.69 1.64 1.68 1.70 1.79 1.82 1.69 1.70 1.75 1.86 1.99 1.77 1.39 1.44 1.57 1.49 1.25 1.09 0.97 0.87 0.87 0.83 0.79 0.60 0.52 0.47 0.44 0.47 0.50 0.51 0.56 0.64
1.08 1.08 1.11 1.10 1.02 1.00 1.10 1.25 1.39 1.55 1.68 1.75 1.78 1.83 1.69 1.74 1.87 1.81 1.79 1.78 1.81 1.98 1.90 1.74 1.67 1.73 1.70 1.49 1.30 1.08 0.82 0.71 0.76 0.90 0.73 0.60 0.54 0.53 0.53 0.52 0.49 0.51 0.56
1.21 1.19 1.18 1.15 1.13 1.19 1.31 1.39 1.44 1.55 1.69 1.74 1.78 1.76 1.70 1.78 1.73 1.78 1.83 1.80 1.77 1.75 1.83 1.81 1.73 1.81 1.76 1.56 1.37 1.15 0.93 0.90 0.81 0.82 0.78 0.71 0.66 0.64 0.63 0.58 0.53 0.52 0.56
1.20 1.23 1.20 1.26 1.30 1.33 1.37 1.38 1.39 1.43 1.49 1.51 1.53 1.50 1.49 1.55 1.60 1.68 1.66 1.65 1.68 1.71 1.78 1.75 1.77 1.86 1.87 1.85 1.67 1.41 1.21 1.09 0.97 0.83 0.82 0.83 0.82 0.77 0.70 0.62 0.54 0.51 0.54
1.10 1.27 1.32 1.41 1.49 1.47 1.35 1.37 1.38 1.29 1.39 1.37 1.33 1.33 1.36 1.44 1.45 1.50 1.43 1.46 1.57 1.64 1.69 1.78 1.87 2.02 2.02 2.09 1.92 1.64 1.46 1.31 1.13 0.98 0.94 0.89 0.87 0.81 0.77 0.75 0.69 0.62 0.56
1.22 1.33 1.37 1.47 1.50 1.38 1.42 1.43 1.42 1.39 1.44 1.44 1.40 1.35 1.24 1.23 1.20 1.22 1.25 1.30 1.39 1.49 1.60 1.74 1.81 1.90 1.98 1.97 1.92 1.77 1.64 1.44 1.18 1.09 1.22 1.18 1.01 0.98 1.08 1.01 0.88 0.67 0.56
1.32 1.38 1.50 1.54 1.54 1.57 1.49 1.37 1.37 1.35 1.41 1.46 1.49 1.49 1.24 1.07 1.14 1.13 1.23 1.20 1.16 1.21 1.31 1.45 1.56 1.68 1.87 1.96 2.01 1.91 1.87 1.74 1.46 1.23 1.20 1.06 0.98 0.99 1.14 1.26 1.03 0.69 0.59
1.46 1.57 1.62 1.55 1.56 1.58 1.49 1.24 1.17 1.09 1.18 1.30 1.38 1.43 1.41 1.32 1.29 1.31 1.35 1.33 1.24 1.20 1.27 1.31 1.36 1.54 1.86 2.09 2.11 2.06 2.06 1.94 1.66 1.34 1.23 1.10 0.97 0.96 0.86 0.89 0.94 0.72 0.57
1.73 1.81 1.87 1.84 1.75 1.71 1.51 1.18 1.06 0.99 1.11 1.16 1.19 1.22 1.22 1.13 1.12 1.06 1.11 1.18 1.19 1.17 1.13 1.17 1.21 1.32 1.53 1.86 2.03 2.06 2.11 1.97 1.73 1.43 1.24 1.17 0.97 0.91 0.84 0.75 0.78 0.83 0.69
1.97 2.01 1.91 1.79 1.70 1.67 1.58 1.27 1.11 1.08 1.21 1.25 1.31 1.30 1.28 1.22 1.15 1.00 0.99 1.07 1.07 1.08 1.12 1.11 1.08 1.06 1.15 1.43 1.72 1.71 1.74 1.82 1.60 1.36 1.06 1.01 0.93 0.87 0.84 0.71 0.63 0.66 0.69